OBJECT L, 44889

Orbit data source: Space-Track

You're viewing an Uncataloged Satellite

Recently launched and/or uncataloged satellites may have evolving metadata. Metadata may include but not limited to: Owner, Maufacturer, Bus, Motor, and Mission.

OBJECT L, 44889 is a satellite in SSO that was launched on Fri, 20 Dec 2019 UTC via a CHANG ZHENG 4B launch vehicle from the Taiyaun Space Center, China (TSC). Unknown objects in Earth's orbit typically refer to objects detected orbiting the Earth but have not yet been identified or cataloged. These objects could be anything from previously untracked satellites, spent rocket stages, debris from satellite collisions, or even natural meteoroids temporarily captured by Earth's gravity.

Loading next visibility...
Identifier
44889, 2019-093L
Orbit
SSO
Country
Flag of TBDTBD
Related business
None
Manufacturer
WEINA/GUOX
Mission
Commercial Imaging
Bus & Motor
CUBESAT 6U, Unknown motor
Mass
~10 kg wet, ~10 kg dry
Launch date (UTC)
2019-12-20 (6 years ago)
Launch vehicle
CHANG ZHENG 4B
Launch site
Taiyaun Space Center, China (TSC)
Object type
Unknown
Shape & HBR
Box, Unknown HBR
Radar Cross Section
0.080 m², Medium (>0.1 m² and < 1m²)

Expand to show TLE details & history
Last TLE update: 15 hours ago

TLE from 15 hours ago
0 OBJECT L
1 44889U 19093L   25261.25046815  .00002760  00000-0  27600-3 0  9995
2 44889  97.7827 337.7520 0011427 231.0912 128.9289 14.92221016311210
Epoch: 2025-09-18T06:00Z
TLE epoch observation values (Epoch: 2025-09-18T06:00:40.448Z)
Latitude
0.00003°
Longitude
-109.83129°
Altitude
599.064 km
Speed
7.557 km/s
True Right ascension
22h 31m 00s
True Declination
0° 00' 00"
Sunlit
Object was in full shadow at epoch
Visualization orbit readout
Latitude
Unknown
Longitude
Unknown
Altitude
Unknown
Speed
Unknown
Apparent Right ascension
Unknown
Apparent Declination
Unknown
Sunlit
N/A
Visualization observer readout
Local Sidereal Time
13:43:36
Azimuth
Unknown
Elevation
Unknown
Doppler factor
Unknown
Orbital elements
Apogee altitude
595.991 km
Perigee altitude
580.071 km
Semi-major axis
6,966.168 km
Eccentricity
0.00114
Inclination
97.7827°
RAAN
337.752°
Arg. of periapsis
231.0912°
True anomaly
129.03067°
Mean anomaly
128.9289°
Eccentric anomaly
128.9798°
Mean motion
3.73295 °/min
Orbital period
96.44 mins
BSTAR
0.000276
Loading maneuver chart data...
Computing Atmospheric mass density...
Loading historical data...
Loading historical data...
Loading historical data...
Loading historical data...
Loading historical data...
Loading historical data...
Loading historical data...

Documentation

Showing up to 5 results
|